This is the latest recevied weather packets stored in our database for station/object KC5DAQ-29. If no packets are shown the sender has not sent any weather packets the latest 1 day(s).
| Time | Temp. | Humidity | Pressure | Rain* | Wind** | Luminosity | Snow |
|---|---|---|---|---|---|---|---|
| 1778023384 | 27.22° C | 100% | 1004.4 hPa | 0 mm | 1.34 m/s, 264° | 93 W/m² | - |
| 1778023322 | 27.22° C | 100% | 1004.3 hPa | 0 mm | 1.34 m/s, 162° | 95 W/m² | - |
| 1778023263 | 27.78° C | 100% | 1004.4 hPa | 0 mm | 0.89 m/s, 173° | 95 W/m² | - |
| 1778023203 | 27.78° C | 100% | 1004.5 hPa | 0 mm | 0.89 m/s, 192° | 95 W/m² | - |
| 1778023143 | 27.78° C | 100% | 1004.5 hPa | 0 mm | 1.34 m/s, 169° | 93 W/m² | - |
| 1778023082 | 27.78° C | 100% | 1004.5 hPa | 0 mm | 1.79 m/s, 169° | 95 W/m² | - |
| 1778023022 | 27.78° C | 100% | 1004.4 hPa | 0 mm | 2.24 m/s, 145° | 95 W/m² | - |
| 1778022963 | 27.78° C | 100% | 1004.4 hPa | 0 mm | 1.79 m/s, 190° | 95 W/m² | - |
| 1778022902 | 27.78° C | 100% | 1004.4 hPa | 0 mm | 1.34 m/s, 158° | 95 W/m² | - |
| 1778022843 | 27.78° C | 100% | 1004.5 hPa | 0 mm | 0.89 m/s, 164° | 95 W/m² | - |
| 1778022783 | 27.78° C | 100% | 1004.5 hPa | 0 mm | 1.34 m/s, 161° | 55 W/m² | - |
| 1778022722 | 27.78° C | 100% | 1004.4 hPa | 0 mm | 1.34 m/s, 159° | 55 W/m² | - |
| 1778022662 | 27.78° C | 100% | 1004.4 hPa | 0 mm | 1.34 m/s, 149° | 55 W/m² | - |
| 1778022603 | 27.78° C | 100% | 1004.4 hPa | 0 mm | 1.34 m/s, 179° | 55 W/m² | - |
| 1778022543 | 27.78° C | 100% | 1004.4 hPa | 0 mm | 1.79 m/s, 166° | 55 W/m² | - |
| 1778022481 | 27.78° C | 100% | 1004.4 hPa | 0 mm | 1.79 m/s, 157° | 51 W/m² | - |
| 1778022422 | 27.78° C | 100% | 1004.4 hPa | 0 mm | 1.34 m/s, 134° | 62 W/m² | - |
| 1778022362 | 27.78° C | 100% | 1004.4 hPa | 0 mm | 0.89 m/s, 152° | 62 W/m² | - |
| 1778022302 | 27.78° C | 100% | 1004.4 hPa | 0 mm | 0.89 m/s, 151° | 62 W/m² | - |
| 1778022242 | 27.78° C | 100% | 1004.4 hPa | 0 mm | 1.79 m/s, 141° | 72 W/m² | - |
| 1778022183 | 27.78° C | 100% | 1004.4 hPa | 0 mm | 1.79 m/s, 133° | 72 W/m² | - |
| 1778022122 | 27.78° C | 100% | 1004.3 hPa | 0 mm | 1.34 m/s, 175° | 93 W/m² | - |
| 1778022063 | 27.78° C | 100% | 1004.3 hPa | 0 mm | 1.34 m/s, 123° | 139 W/m² | - |
| 1778022003 | 27.78° C | 100% | 1004.3 hPa | 0 mm | 1.79 m/s, 154° | 139 W/m² | - |
| 1778021942 | 27.78° C | 100% | 1004.3 hPa | 0 mm | 1.79 m/s, 210° | 139 W/m² | - |
* Rain latest hour (hover to see other rain measurements)
** Current wind speed in m/s (hover to see current wind gust speed)